Regional Weather Roundup
Issued by NWS Charleston, SC

Current Version | Previous Version | Text Only | Print | Product List | Glossary Off
Versions: 1 2 3 4 5 6 7 8 9 10 11 12 13 14 15 16 17 18 19 20 21 22 23 24 25 26 27 28 29 30 31 32 33 34 35 36 37 38 39 40 41 42 43 44 45 46 47 48 49 50

000
ASUS42 KCHS 061227
RWRCHS

REGIONAL WEATHER ROUNDUP
NATIONAL WEATHER SERVICE CHARLESTON SC
700 AM EST SAT FEB 06 2016

NOTE: "FAIR" INDICATES FEW OR NO CLOUDS BELOW 12,000 FEET WITH NO
SIGNIFICANT WEATHER AND/OR OBSTRUCTIONS TO VISIBILITY.

NOT ALL STATIONS ARE QUALITY CONTROLLED BY THE NATIONAL
WEATHER SERVICE. USE DATA WITH CAUTION...ESPECIALLY
DEWPOINT OBSERVATIONS.

NOTICE: OBSERVATIONS FOR THE SAVANNAH-HILTON HEAD INTERNATIONAL AIRPORT
/KSAV/ HAVE BEEN TEMPORARILY REMOVED DUE TO AN ERRONEOUS TEMPERATURE
SENSOR. THE OBSERVATION WILL BE REINTRODUCED ONCE REPAIRS ARE COMPLETE.

SCZ027-030-031-034>040-042>050-061300-
...SOUTHEAST SOUTH CAROLINA...

CITY           SKY/WX    TMP DP  RH WIND       PRES   REMARKS
N CHARLESTON   PTCLDY    37  29  72 NE9       30.36F WCI  30
6HR MIN TEMP:  32; 6HR MAX TEMP:  38;

WATERFRONT PRK   N/A     44  35  70 N10       30.21F
MOUNT PLEASANT FAIR      39  30  70 N7        30.38R WCI  34
JOHNS ISLAND   PTSUNNY   43  30  61 N8        30.37R
PINOPOLIS        N/A     45  32  61 NE9       30.30R
MONCKS CORNER  FAIR      36  23  60 N5        30.38S WCI  32
SUMMERVILLE    NOT AVBL
BEAUFORT MCAS  MOCLDY    40  30  67 N7        30.37R WCI  35
6HR MIN TEMP:  35; 6HR MAX TEMP:  41;

BEAUFORT ARPT  PTSUNNY   43  30  61 N13       30.37R
HILTON HEAD IS MOCLDY    45  30  57 NE14G21   30.36S
WALTERBORO     MOSUNNY   34  32  93 NE3       30.39S
ALLENDALE      FAIR      36  30  80 CALM      30.36F

...SOUTHERN MIDLANDS AND PEE DEE...

CITY           SKY/WX    TMP DP  RH WIND       PRES   REMARKS
GEORGETOWN     NOT AVBL
KINGSTREE      NOT AVBL
ORANGEBURG     PTCLDY    33  27  78 NE7       30.40S WCI  27
6HR MIN TEMP:  30; 6HR MAX TEMP:  33;

BARNWELL       FAIR      34  30  86 CALM      30.38F
AIKEN          FAIR      30  23  74 NE5       30.42S WCI  25
MANNING        FAIR      30  28  93 N9        30.39F WCI  22
COLUMBIA       PTCLDY    28  24  85 CALM      30.42S
6HR MIN TEMP:  28; 6HR MAX TEMP:  31;

SUMTER         CLOUDY    29  24  81 NE6       30.39F WCI  22
6HR MIN TEMP:  28; 6HR MAX TEMP:  33;

FLORENCE       PTCLDY    31  28  89 N6        30.43F WCI  25
6HR MIN TEMP:  28; 6HR MAX TEMP:  33;

MYRTLE BEACH   PTCLDY    34  27  75 N9        30.42S WCI  26
N MYRTLE BEACH CLOUDY    36  30  79 N7        30.41S WCI  30
6HR MIN TEMP:  32; 6HR MAX TEMP:  36;


$$

GAZ063-065-086>088-099>101-113>116-118-119-134>141-150-061300-
...SOUTHEAST GEORGIA...

CITY           SKY/WX    TMP DP  RH WIND       PRES   REMARKS
SAVANNAH ARPT  MOCLDY    41  27  57 N7        30.36R
6HR MIN TEMP:  35; 6HR MAX TEMP:  41;

HUNTER AAF     CLOUDY    42  27  54 N7        30.33R
6HR MIN TEMP:  35; 6HR MAX TEMP:  42;

FORT STEWART   CLOUDY    40  30  65 NE5       30.33R WCI  37
6HR MIN TEMP:  31; 6HR MAX TEMP:  40;

STATESBORO     CLOUDY    39  29  66 CALM      30.36S
SYLVANIA       MOSUNNY   36  32  87 CALM      30.37S
CLAXTON        CLOUDY    38  34  87 NE3       30.36S

...CSRA...CENTRAL AND FAR SOUTHEAST GEORGIA...

CITY           SKY/WX    TMP DP  RH WIND       PRES   REMARKS
THOMSON        PTCLDY    28  28 100 CALM      30.42F
AUGUSTA-BUSH   PTCLDY    30  28  92 N7        30.39F WCI  23
6HR MIN TEMP:  27; 6HR MAX TEMP:  30;

AUGUSTA-DANIEL CLOUDY    36  25  64 NE6       30.38F WCI  31
SWAINSBORO     FAIR      36  28  75 NE3       30.35S
VIDALIA        CLOUDY    36  32  87 NE5       30.35R WCI  32
EASTMAN        FAIR      32  32 100 CALM      30.36F
HAZLEHURST     FAIR      38  31  77 NE5       30.32F WCI  34
ALMA           CLOUDY    40  30  67 NE6       30.33S WCI  36
6HR MIN TEMP:  33; 6HR MAX TEMP:  40;

WAYCROSS       CLOUDY    45  33  64 NE7       30.31F
JESUP          CLOUDY    45  32  61 NE7       30.34S
BAXLEY         CLOUDY    41  32  70 E6        30.32F
BRUNSWICK      PTCLDY    43  32  65 N6        30.32S
SAINT SIMONS   CLEAR     45  32  60 N12       30.31R
6HR MIN TEMP:  42; 6HR MAX TEMP:  45;


$$

SCZ027-028-034-036>038-045-046-048>050-GAZ119-141-061300-
...LAKE AND SUPPLEMENTAL COASTAL OBSERVATIONS...

STATION/POSITION TIME  TEMP    WIND        PRES    WAVE   SWELL
                       AIR SEA DIR/SP/G            HT/PER HT/PER/DIR
                 (UTC) (F)     (DEG/KT/KT) (MB)    (FT/S) (FT/S/D)
WINYAH BAY       1100   38     350/  6     1028.0
LAKE MURRAY      1200   33      CALM  /  3 1029.5R
ACE BASIN NERRS  1100   37        CALM     1028.0S
FORT PULASKI     1200   46 55   20/ 14/ 19 1027.6R
SAPELO ISLAND    1200   47      20/ 13     1027.0R

$$

ANZ835-935-AMZ111-154-330-350-352-354-370-450-454-472-061300-
...C-MAN AND BUOY OBSERVATIONS...

STATION/POSITION TIME  TEMP    WIND        PRES    WAVE   SWELL
                       AIR SEA DIR/SP/G            HT/PER HT/PER/DIR
                 (UTC) (F)     (DEG/KT/KT) (MB)    (FT/S) (FT/S/D)
BUOY 41004       1150   51 67   10/ 23/ 27 1026.2R   6/11   5/11
BUOY 41008       1150   50 57   40/ 23/ 27 1025.7R   5/ 5   2/ 70/ 8
FOLLY BEACH CMAN 1200   44      20/ 16/ 18 1028.1R
CAPERS NEARSHORE 1108   46      20/ 17/ 23 1026.9S
FRIPP NEARSHORE  1100   48      40/ 19/ 23 1026.0F


STATION/POSITION TIME  TEMP    WIND        PRES    WAVE   SWELL
                       AIR SEA DIR/SP/G            HT/PER HT/PER/DIR
                 (UTC) (F)     (DEG/KT/KT) (MB)    (FT/S) (FT/S/D)
5E ST. MARYS GA  1121      58                N/A     6/ 5
FRYING PAN BUOY  1200   51 69   10/ 19/ 25 1027.8R
BUOY 41025       1150   46 73  350/ 17/ 23 1028.6S   6/10   5/ 40/10
CAPE LOOKOUT NC  NOT AVBL
BUOY 41002       1150   60 69   60/ 14/ 17   N/A     9/10   8/ 20/10
BUOY 41010       1120   67 74              1021.1F
ST AUGUSTINE FL  1200   55 59   10/ 26/ 28 1024.5S


$$



USA.gov is the U.S. government's official web portal to all federal, state and local government web resources and services.